| time (UTC) | temp F | wind direction | speed MPH | gust MPH | rain 1hr in | rain 24hr in | rain mn in | humidity % | barometer mb |
| 20260505024957 | 55 | 339 | 3.0 | 7.0 | 0.00 | 0.00 | 0.00 | 86 | 1010.4 |
| 20260505024457 | 55 | 18 | 3.0 | 7.0 | 0.00 | 0.00 | 0.00 | 86 | 1010.5 |
| 20260505023957 | 55 | 21 | 4.0 | 7.0 | 0.00 | 0.00 | 0.00 | 85 | 1010.5 |
| 20260505023457 | 55 | 4 | 5.0 | 9.0 | 0.00 | 0.00 | 0.00 | 85 | 1010.5 |
| 20260505022957 | 55 | 38 | 5.0 | 9.0 | 0.00 | 0.00 | 0.00 | 85 | 1010.7 |
| 20260505022457 | 55 | 43 | 4.0 | 8.0 | 0.00 | 0.00 | 0.00 | 85 | 1010.8 |
| 20260505021957 | 55 | 15 | 4.0 | 11.0 | 0.00 | 0.00 | 0.00 | 85 | 1010.8 |
| 20260505021457 | 55 | 19 | 4.0 | 7.0 | 0.00 | 0.00 | 0.00 | 85 | 1010.9 |
| 20260505020957 | 55 | 12 | 4.0 | 6.0 | 0.00 | 0.00 | 0.00 | 84 | 1010.9 |
| 20260505020457 | 55 | 18 | 3.0 | 8.0 | 0.00 | 0.00 | 0.00 | 84 | 1010.9 |
| 20260505015957 | 55 | 44 | 3.0 | 7.0 | 0.00 | 0.00 | 0.00 | 84 | 1010.9 |
| 20260505015457 | 55 | 20 | 3.0 | 8.0 | 0.00 | 0.00 | 0.00 | 84 | 1010.9 |
| 20260505014957 | 55 | 29 | 4.0 | 10.0 | 0.00 | 0.00 | 0.00 | 84 | 1011.0 |
| 20260505014457 | 55 | 26 | 4.0 | 8.0 | 0.00 | 0.00 | 0.00 | 84 | 1011.0 |
| 20260505013957 | 55 | 14 | 4.0 | 7.0 | 0.00 | 0.00 | 0.00 | 84 | 1011.0 |
| 20260505013457 | 55 | 4 | 4.0 | 10.0 | 0.00 | 0.00 | 0.00 | 84 | 1011.0 |
| 20260505012957 | 55 | 359 | 4.0 | 7.0 | 0.00 | 0.00 | 0.00 | 84 | 1011.0 |
| 20260505012457 | 55 | 27 | 4.0 | 5.0 | 0.00 | 0.00 | 0.00 | 83 | 1011.1 |
| 20260505011957 | 55 | 359 | 3.0 | 9.0 | 0.00 | 0.00 | 0.00 | 83 | 1011.1 |
| 20260505011457 | 55 | 31 | 3.0 | 5.0 | 0.00 | 0.00 | 0.00 | 83 | 1011.2 |
| 20260505010957 | 55 | 35 | 2.0 | 6.0 | 0.00 | 0.00 | 0.00 | 83 | 1011.2 |
| 20260505010457 | 55 | 85 | 2.0 | 4.0 | 0.00 | 0.00 | 0.00 | 83 | 1011.2 |
| 20260505005957 | 55 | 19 | 2.0 | 4.0 | 0.00 | 0.00 | 0.00 | 83 | 1011.3 |
| 20260505005457 | 55 | 32 | 3.0 | 6.0 | 0.00 | 0.00 | 0.00 | 83 | 1011.2 |
| 20260505004957 | 55 | 29 | 3.0 | 4.0 | 0.00 | 0.00 | 0.00 | 83 | 1011.3 |
| 20260505004457 | 55 | 41 | 3.0 | 7.0 | 0.00 | 0.00 | 0.00 | 83 | 1011.4 |
| 20260505003958 | 55 | 54 | 2.0 | 5.0 | 0.00 | 0.00 | 0.00 | 83 | 1011.4 |
| 20260505003457 | 55 | 52 | 2.0 | 6.0 | 0.00 | 0.00 | 0.00 | 83 | 1011.4 |
| 20260505002957 | 55 | 21 | 2.0 | 4.0 | 0.00 | 0.00 | 0.00 | 83 | 1011.4 |
| 20260505002457 | 55 | 15 | 2.0 | 4.0 | 0.00 | 0.00 | 0.00 | 83 | 1011.4 |
| 20260505001957 | 54 | 26 | 2.0 | 3.0 | 0.00 | 0.00 | 0.00 | 83 | 1011.5 |
| 20260505001457 | 54 | 15 | 3.0 | 5.0 | 0.00 | 0.00 | 0.00 | 83 | 1011.6 |
| 20260505000957 | 54 | 336 | 4.0 | 5.0 | 0.00 | 0.00 | 0.00 | 83 | 1011.6 |
| 20260505000457 | 54 | 21 | 4.0 | 7.0 | 0.00 | 0.00 | 0.00 | 83 | 1011.7 |
| 20260504235957 | 54 | 329 | 3.0 | 6.0 | 0.00 | 0.00 | 0.00 | 83 | 1011.7 |
| 20260504235457 | 54 | 11 | 3.0 | 7.0 | 0.00 | 0.00 | 0.00 | 83 | 1011.7 |
| 20260504234957 | 54 | 19 | 3.0 | 6.0 | 0.00 | 0.00 | 0.00 | 83 | 1011.7 |
| 20260504234457 | 54 | 337 | 1.0 | 5.0 | 0.00 | 0.00 | 0.00 | 83 | 1011.7 |
| 20260504233957 | 54 | 15 | 1.0 | 3.0 | 0.00 | 0.00 | 0.00 | 83 | 1011.7 |
| 20260504233457 | 54 | 50 | 2.0 | 4.0 | 0.00 | 0.00 | 0.00 | 83 | 1011.8 |
| 20260504232957 | 54 | 20 | 3.0 | 5.0 | 0.00 | 0.00 | 0.00 | 83 | 1011.7 |
| 20260504232457 | 54 | 323 | 3.0 | 7.0 | 0.00 | 0.00 | 0.00 | 83 | 1011.8 |
| 20260504231957 | 54 | 45 | 3.0 | 7.0 | 0.00 | 0.00 | 0.00 | 83 | 1011.8 |
| 20260504231457 | 54 | 337 | 3.0 | 6.0 | 0.00 | 0.00 | 0.00 | 83 | 1011.8 |
| 20260504230958 | 54 | 359 | 4.0 | 8.0 | 0.00 | 0.00 | 0.00 | 83 | 1011.8 |
| 20260504230457 | 54 | 20 | 3.0 | 5.0 | 0.00 | 0.00 | 0.00 | 83 | 1011.8 |
| 20260504225957 | 54 | 22 | 3.0 | 7.0 | 0.00 | 0.00 | 0.00 | 83 | 1011.9 |
| 20260504225458 | 55 | 11 | 3.0 | 5.0 | 0.00 | 0.00 | 0.00 | 83 | 1011.9 |
| 20260504224958 | 55 | 61 | 4.0 | 7.0 | 0.00 | 0.00 | 0.00 | 83 | 1011.9 |
| 20260504224458 | 55 | 340 | 4.0 | 7.0 | 0.00 | 0.00 | 0.00 | 83 | 1011.8 |
| 20260504223958 | 55 | 42 | 3.0 | 9.0 | 0.00 | 0.00 | 0.00 | 83 | 1011.9 |
| 20260504223458 | 55 | 39 | 3.0 | 5.0 | 0.00 | 0.00 | 0.00 | 83 | 1012.0 |
| 20260504222958 | 55 | 359 | 3.0 | 4.0 | 0.00 | 0.00 | 0.00 | 83 | 1012.0 |
| 20260504222458 | 55 | 8 | 3.0 | 9.0 | 0.00 | 0.00 | 0.00 | 83 | 1012.0 |
| 20260504221958 | 55 | 349 | 2.0 | 6.0 | 0.00 | 0.00 | 0.00 | 83 | 1012.1 |
| 20260504221458 | 55 | 8 | 2.0 | 7.0 | 0.00 | 0.00 | 0.00 | 83 | 1012.0 |
| 20260504220958 | 56 | 354 | 3.0 | 5.0 | 0.00 | 0.00 | 0.00 | 83 | 1012.0 |
| 20260504220458 | 56 | 4 | 3.0 | 8.0 | 0.00 | 0.00 | 0.00 | 82 | 1011.9 |
| 20260504215958 | 56 | 347 | 3.0 | 6.0 | 0.00 | 0.00 | 0.00 | 82 | 1011.9 |
| 20260504215458 | 56 | 4 | 3.0 | 6.0 | 0.00 | 0.00 | 0.00 | 82 | 1011.9 |
| 20260504214958 | 56 | 10 | 2.0 | 5.0 | 0.00 | 0.00 | 0.00 | 82 | 1012.1 |
| 20260504214458 | 56 | 31 | 2.0 | 3.0 | 0.00 | 0.00 | 0.00 | 82 | 1012.1 |
| 20260504213958 | 56 | 25 | 2.0 | 4.0 | 0.00 | 0.00 | 0.00 | 81 | 1012.1 |
| 20260504213458 | 56 | 23 | 2.0 | 4.0 | 0.00 | 0.00 | 0.00 | 81 | 1012.1 |
| 20260504212958 | 56 | 22 | 2.0 | 5.0 | 0.00 | 0.00 | 0.00 | 81 | 1012.0 |
| 20260504212458 | 56 | 23 | 2.0 | 4.0 | 0.00 | 0.00 | 0.00 | 81 | 1011.9 |
| 20260504211958 | 56 | 33 | 1.0 | 4.0 | 0.00 | 0.00 | 0.00 | 81 | 1011.9 |
| 20260504211458 | 56 | 43 | 1.0 | 4.0 | 0.00 | 0.00 | 0.00 | 80 | 1012.0 |
| 20260504210958 | 56 | 65 | 1.0 | 3.0 | 0.00 | 0.00 | 0.00 | 80 | 1012.0 |
| 20260504210458 | 56 | 61 | 1.0 | 3.0 | 0.00 | 0.00 | 0.00 | 80 | 1012.1 |
| 20260504205958 | 56 | 61 | 1.0 | 3.0 | 0.00 | 0.00 | 0.00 | 80 | 1012.0 |
| 20260504205458 | 56 | 63 | 1.0 | 3.0 | 0.00 | 0.00 | 0.00 | 80 | 1012.0 |
| 20260504204958 | 57 | 48 | 2.0 | 3.0 | 0.00 | 0.00 | 0.00 | 80 | 1012.0 |
| 20260504204458 | 57 | 42 | 2.0 | 4.0 | 0.00 | 0.00 | 0.00 | 80 | 1012.0 |
| 20260504203958 | 57 | 26 | 1.0 | 3.0 | 0.00 | 0.00 | 0.00 | 80 | 1012.0 |
| 20260504203458 | 57 | 34 | 2.0 | 3.0 | 0.00 | 0.00 | 0.00 | 80 | 1012.0 |
| 20260504202958 | 57 | 17 | 2.0 | 4.0 | 0.00 | 0.00 | 0.00 | 80 | 1012.0 |
| 20260504202609 | 65 | 20 | 4.0 | 8.0 | 0.00 | 0.04 | 0.00 | 62 | 1012.1 |
| 20260504202458 | 57 | 33 | 2.0 | 4.0 | 0.00 | 0.00 | 0.00 | 80 | 1012.0 |
| 20260504201958 | 57 | 50 | 2.0 | 4.0 | 0.00 | 0.00 | 0.00 | 80 | 1012.0 |
| 20260504201458 | 57 | 20 | 2.0 | 4.0 | 0.00 | 0.00 | 0.00 | 80 | 1012.0 |
| 20260504200958 | 57 | 49 | 2.0 | 3.0 | 0.00 | 0.00 | 0.00 | 80 | 1012.0 |
| 20260504200458 | 57 | 21 | 2.0 | 5.0 | 0.00 | 0.00 | 0.00 | 80 | 1011.9 |
| 20260504195958 | 57 | 16 | 2.0 | 6.0 | 0.00 | 0.00 | 0.00 | 80 | 1011.8 |
| 20260504195458 | 57 | 29 | 2.0 | 4.0 | 0.00 | 0.00 | 0.00 | 80 | 1011.8 |
| 20260504194958 | 57 | 28 | 3.0 | 4.0 | 0.00 | 0.00 | 0.00 | 80 | 1011.8 |
| 20260504194458 | 57 | 19 | 2.0 | 4.0 | 0.00 | 0.00 | 0.00 | 79 | 1011.8 |
| 20260504193958 | 57 | 11 | 3.0 | 4.0 | 0.00 | 0.00 | 0.00 | 79 | 1011.8 |
| 20260504193458 | 57 | 25 | 3.0 | 7.0 | 0.00 | 0.00 | 0.00 | 79 | 1011.7 |
| 20260504192958 | 57 | 27 | 2.0 | 5.0 | 0.00 | 0.00 | 0.00 | 79 | 1011.6 |
| 20260504192458 | 57 | 20 | 2.0 | 5.0 | 0.00 | 0.00 | 0.00 | 78 | 1011.6 |
| 20260504191958 | 57 | 53 | 3.0 | 5.0 | 0.00 | 0.00 | 0.00 | 78 | 1011.6 |
| 20260504191458 | 57 | 17 | 3.0 | 5.0 | 0.00 | 0.00 | 0.00 | 78 | 1011.6 |
| 20260504190958 | 58 | 10 | 3.0 | 6.0 | 0.00 | 0.00 | 0.00 | 77 | 1011.6 |
| 20260504190458 | 57 | 27 | 3.0 | 7.0 | 0.00 | 0.00 | 0.00 | 77 | 1011.7 |
| 20260504185958 | 57 | 35 | 4.0 | 6.0 | 0.00 | 0.00 | 0.00 | 76 | 1011.7 |
| 20260504185458 | 57 | 21 | 5.0 | 8.0 | 0.00 | 0.00 | 0.00 | 76 | 1011.7 |
| 20260504184958 | 58 | 10 | 4.0 | 8.0 | 0.00 | 0.00 | 0.00 | 75 | 1011.6 |
| 20260504184458 | 58 | 338 | 4.0 | 9.0 | 0.00 | 0.00 | 0.00 | 74 | 1011.6 |
| 20260504183958 | 58 | 14 | 4.0 | 9.0 | 0.00 | 0.00 | 0.00 | 74 | 1011.6 |
| 20260504183458 | 58 | 349 | 4.0 | 9.0 | 0.00 | 0.00 | 0.00 | 74 | 1011.7 |
| 20260504182958 | 58 | 359 | 4.0 | 6.0 | 0.00 | 0.00 | 0.00 | 74 | 1011.7 |
| 20260504182458 | 58 | 10 | 4.0 | 9.0 | 0.00 | 0.00 | 0.00 | 73 | 1011.7 |
| 20260504181958 | 58 | 12 | 4.0 | 7.0 | 0.00 | 0.00 | 0.00 | 73 | 1011.6 |
| 20260504181458 | 58 | 328 | 4.0 | 6.0 | 0.00 | 0.00 | 0.00 | 73 | 1011.6 |
| 20260504180958 | 58 | 319 | 4.0 | 5.0 | 0.00 | 0.00 | 0.00 | 73 | 1011.6 |
| 20260504180458 | 58 | 359 | 4.0 | 9.0 | 0.00 | 0.00 | 0.00 | 73 | 1011.7 |
| 20260504175958 | 58 | 347 | 4.0 | 7.0 | 0.00 | 0.00 | 0.00 | 72 | 1011.6 |
| 20260504175458 | 58 | 9 | 5.0 | 8.0 | 0.00 | 0.00 | 0.00 | 72 | 1011.6 |
| 20260504174958 | 58 | 354 | 5.0 | 10.0 | 0.00 | 0.00 | 0.00 | 72 | 1011.6 |
| 20260504174458 | 58 | 339 | 5.0 | 10.0 | 0.00 | 0.00 | 0.00 | 72 | 1011.7 |
| 20260504173958 | 58 | 4 | 5.0 | 9.0 | 0.00 | 0.00 | 0.00 | 72 | 1011.7 |
| 20260504173458 | 58 | 4 | 5.0 | 9.0 | 0.00 | 0.00 | 0.00 | 72 | 1011.8 |
| 20260504172958 | 58 | 27 | 5.0 | 9.0 | 0.00 | 0.00 | 0.00 | 72 | 1011.7 |
| 20260504172458 | 58 | 323 | 5.0 | 10.0 | 0.00 | 0.00 | 0.00 | 72 | 1011.7 |
| 20260504171958 | 58 | 328 | 6.0 | 10.0 | 0.00 | 0.00 | 0.00 | 72 | 1011.7 |
| 20260504171458 | 58 | 354 | 6.0 | 10.0 | 0.00 | 0.00 | 0.00 | 72 | 1011.8 |
| 20260504170958 | 58 | 326 | 6.0 | 10.0 | 0.00 | 0.00 | 0.00 | 71 | 1011.8 |
| 20260504170458 | 58 | 347 | 6.0 | 12.0 | 0.00 | 0.00 | 0.00 | 71 | 1011.8 |
| 20260504150958 | 60 | 359 | 5.0 | 11.0 | 0.00 | 0.00 | 0.00 | 70 | 1011.7 |
| 20260504150458 | 60 | 350 | 6.0 | 11.0 | 0.00 | 0.00 | 0.00 | 71 | 1011.7 |
| 20260504140958 | 60 | 354 | 6.0 | 11.0 | 0.00 | 0.00 | 0.00 | 72 | 1012.0 |
| 20260504140458 | 61 | 314 | 6.0 | 10.0 | 0.00 | 0.00 | 0.00 | 70 | 1011.9 |
| 20260504130458 | 59 | 266 | 3.0 | 6.0 | 0.00 | 0.04 | 0.00 | 73 | 1012.0 |
| 20260504110459 | 64 | 280 | 2.0 | 5.0 | 0.00 | 0.04 | 0.00 | 64 | 1012.3 |
| 20260504100459 | 61 | 354 | 4.0 | 9.0 | 0.00 | 0.04 | 0.00 | 67 | 1012.2 |
| 20260504081959 | 56 | 310 | 4.0 | 9.0 | 0.00 | 0.04 | 0.00 | 80 | 1012.2 |
| 20260504081459 | 56 | 330 | 5.0 | 9.0 | 0.00 | 0.04 | 0.00 | 80 | 1012.2 |
| 20260504080959 | 57 | 28 | 5.0 | 9.0 | 0.00 | 0.04 | 0.00 | 80 | 1012.2 |
| 20260504080459 | 56 | 35 | 4.0 | 10.0 | 0.00 | 0.04 | 0.00 | 80 | 1012.2 |
| 20260504050459 | 52 | 359 | 0.0 | 2.0 | 0.00 | 0.04 | 0.00 | 87 | 1010.8 |
| 20260504045959 | 52 | 359 | 0.0 | 1.0 | 0.00 | 0.04 | 0.00 | 87 | 1010.7 |
| 20260504045459 | 52 | 10 | 1.0 | 2.0 | 0.00 | 0.04 | 0.00 | 87 | 1010.6 |
| 20260504044959 | 52 | 359 | 1.0 | 2.0 | 0.00 | 0.04 | 0.00 | 87 | 1010.5 |
| 20260504044459 | 52 | 359 | 1.0 | 2.0 | 0.00 | 0.04 | 0.00 | 87 | 1010.5 |
| 20260504043959 | 53 | 4 | 1.0 | 3.0 | 0.00 | 0.04 | 0.00 | 87 | 1010.6 |
| 20260504043459 | 53 | 320 | 1.0 | 3.0 | 0.00 | 0.04 | 0.00 | 87 | 1010.6 |
| 20260504042959 | 53 | 359 | 1.0 | 3.0 | 0.00 | 0.04 | 0.00 | 87 | 1010.6 |
| 20260504042459 | 53 | 359 | 1.0 | 4.0 | 0.00 | 0.04 | 0.00 | 87 | 1010.6 |
| 20260504041959 | 53 | 338 | 1.0 | 2.0 | 0.00 | 0.04 | 0.00 | 87 | 1010.5 |
| 20260504041459 | 53 | 338 | 0.0 | 2.0 | 0.00 | 0.04 | 0.00 | 87 | 1010.6 |
| 20260504040959 | 53 | 338 | 0.0 | 0.0 | 0.00 | 0.04 | 0.00 | 87 | 1010.6 |
| 20260504040459 | 53 | 338 | 0.0 | 0.0 | 0.00 | 0.04 | 0.00 | 87 | 1010.7 |
| 20260504035959 | 53 | 338 | 0.0 | 1.0 | 0.00 | 0.04 | 0.00 | 87 | 1010.6 |
| 20260504035459 | 53 | 338 | 0.0 | 1.0 | 0.00 | 0.04 | 0.00 | 87 | 1010.6 |
| 20260504034959 | 53 | 338 | 1.0 | 2.0 | 0.00 | 0.04 | 0.00 | 87 | 1010.6 |
| 20260504034459 | 53 | 338 | 1.0 | 1.0 | 0.00 | 0.04 | 0.00 | 87 | 1010.8 |
| 20260504033959 | 53 | 338 | 1.0 | 2.0 | 0.00 | 0.04 | 0.00 | 87 | 1010.8 |
| 20260504033459 | 53 | 338 | 1.0 | 2.0 | 0.00 | 0.04 | 0.00 | 87 | 1010.9 |
| 20260504032959 | 53 | 338 | 1.0 | 3.0 | 0.00 | 0.04 | 0.00 | 87 | 1010.9 |
| 20260504032459 | 53 | 338 | 0.0 | 2.0 | 0.00 | 0.04 | 0.00 | 87 | 1010.9 |
| 20260504031959 | 53 | 339 | 1.0 | 2.0 | 0.00 | 0.04 | 0.00 | 87 | 1010.8 |
| 20260504031459 | 53 | 339 | 1.0 | 2.0 | 0.00 | 0.04 | 0.00 | 87 | 1010.8 |
| 20260504030959 | 53 | 322 | 1.0 | 2.0 | 0.00 | 0.04 | 0.00 | 87 | 1010.7 |
| 20260504030459 | 53 | 322 | 1.0 | 2.0 | 0.00 | 0.04 | 0.00 | 87 | 1010.7 |
| 20260504025959 | 53 | 322 | 0.0 | 2.0 | 0.00 | 0.04 | 0.00 | 87 | 1010.7 |
| 20260504025459 | 53 | 322 | 0.0 | 1.0 | 0.00 | 0.04 | 0.00 | 87 | 1010.6 |